TimeMDT,TemperatureF,Dew PointF,Humidity,Sea Level PressureIn,VisibilityMPH,Wind Direction,Wind SpeedMPH,Gust SpeedMPH,PrecipitationIn,Events,Conditions,WindDirDegrees,DateUTC
12:29 AM,28.4,28.4,100,29.88,0.8,Calm,Calm,-,N/A,,Overcast,0,2012-10-28 06:29:00
12:56 AM,28.9,28.0,96,30.07,2.5,Calm,Calm,-,N/A,,Overcast,0,2012-10-28 06:56:00
1:04 AM,28.4,28.4,100,29.88,8.0,Calm,Calm,-,N/A,,Overcast,0,2012-10-28 07:04:00
1:56 AM,30.0,28.9,96,30.05,9.0,Calm,Calm,-,N/A,,Overcast,0,2012-10-28 07:56:00
2:22 AM,30.2,28.4,93,29.85,8.0,ENE,3.5,-,0.00,Rain,Light Freezing Rain,70,2012-10-28 08:22:00
2:56 AM,30.9,30.0,96,30.00,10.0,SSE,3.5,-,0.00,Rain,Light Freezing Rain,150,2012-10-28 08:56:00
3:18 AM,37.4,33.8,87,29.81,10.0,SSE,11.5,-,0.00,Rain,Light Rain,160,2012-10-28 09:18:00
3:56 AM,37.9,34.0,86,29.96,10.0,South,6.9,-,0.00,,Mostly Cloudy,180,2012-10-28 09:56:00
4:56 AM,39.9,34.0,79,29.93,10.0,South,13.8,21.9,N/A,,Mostly Cloudy,180,2012-10-28 10:56:00
5:56 AM,37.9,34.0,86,29.94,10.0,North,3.5,-,0.01,,Overcast,10,2012-10-28 11:56:00
6:56 AM,33.1,30.9,92,29.93,10.0,North,4.6,-,N/A,,Overcast,360,2012-10-28 12:56:00
7:56 AM,39.0,35.1,86,29.90,10.0,South,9.2,-,N/A,,Clear,180,2012-10-28 13:56:00
8:56 AM,43.0,36.0,76,29.89,10.0,SSW,12.7,-,N/A,,Scattered Clouds,200,2012-10-28 14:56:00
9:56 AM,48.9,37.9,66,29.88,10.0,SSW,20.7,31.1,N/A,,Overcast,210,2012-10-28 15:56:00
11:56 AM,54.0,39.0,57,29.88,10.0,SSW,26.5,33.4,N/A,,Scattered Clouds,210,2012-10-28 17:56:00
12:56 PM,55.0,39.0,55,29.87,10.0,SSW,26.5,33.4,N/A,,Overcast,200,2012-10-28 18:56:00
1:56 PM,55.9,37.9,51,29.87,10.0,SSW,23.0,29.9,N/A,,Partly Cloudy,200,2012-10-28 19:56:00
2:56 PM,55.9,37.9,51,29.86,10.0,SSW,28.8,35.7,N/A,,Clear,200,2012-10-28 20:56:00
3:56 PM,57.0,37.9,49,29.85,10.0,SSW,21.9,28.8,N/A,,Clear,200,2012-10-28 21:56:00
4:56 PM,55.9,37.9,51,29.87,10.0,SSW,17.3,-,N/A,,Partly Cloudy,200,2012-10-28 22:56:00
5:56 PM,55.0,37.0,51,29.87,10.0,SSW,28.8,39.1,N/A,,Clear,200,2012-10-28 23:56:00
6:56 PM,53.1,36.0,52,29.91,10.0,SSW,19.6,-,N/A,,Clear,210,2012-10-29 00:56:00
7:56 PM,52.0,36.0,54,29.90,10.0,SSW,19.6,-,N/A,,Clear,210,2012-10-29 01:56:00
8:56 PM,51.1,37.0,59,29.92,10.0,SSW,15.0,-,N/A,,Clear,200,2012-10-29 02:56:00
9:56 PM,53.1,37.0,55,29.92,10.0,SSW,15.0,-,N/A,,Clear,210,2012-10-29 03:56:00
10:56 PM,53.1,37.0,55,29.93,10.0,SW,10.4,-,N/A,,Clear,230,2012-10-29 04:56:00
11:56 PM,51.1,37.0,59,29.95,10.0,WSW,9.2,-,N/A,,Clear,240,2012-10-29 05:56:00